Temperature
15 15 14 14 14 15 15 15 15 15 15 15 15 15 15 15 15 15 15 15 15 15 15 15 15 15 15 15 15 15 15 15 15 15 15 15 15 15 15 15 15 15 15
15 15 14 14 14 15 15 15 15 15 15 15 15 15 15 15 15 15 15 15 15 15 15 15 15 15 15 15 14 14 14 14 14 14 14 14 15 15 15 15 15 15 15
15 14 14 14 14 14 14 15 14 15 15 15 15 15 14 14 15 15 15 14 14 14 14 14 14 14 14 14 14 14 14 14 14 14 14 14 14 14 15 14 15 15 15
15 14 14 14 14 14 14 14 14 14 14 14 15 14 14 14 14 14 14 14 14 14 14 14 14 14 14 14 14 14 14 14 14 14 14 14 14 14 14 14 14 14 14
14 14 14 14 14 14 14 14 14 14 14 14 14 14 14 14 14 14 14 14 14 14 14 14 14 14 14 14 14 14 14 14 14 14 14 14 14 14 14 14 14 14 14
14 14 14 13 14 14 14 14 14 14 14 14 14 14 14 14 14 14 14 14 14 14 14 14 14 14 14 13 14 14 13 13 13 13 13 13 13 13 13 14 14 14 14
13 13 13 13 13 13 13 13 13 13 13 14 14 14 14 14 14 14 14 14 14 14 14 14 14 14 14 13 13 13 13 13 13 13 13 13 13 13 13 13 13 13 13
13 13 13 13 13 13 13 13 13 13 13 13 13 13 14 14 14 14 14 14 14 14 14 13 13 13 13 13 13 13 13 13 13 13 13 13 13 13 13 13 13 13 13
12 13 13 13 13 13 13 13 13 13 13 13 13 13 13 14 14 14 14 14 14 14 13 13 13 13 13 13 13 13 13 13 13 13 13 13 13 13 13 13 13 13 13
12 12 12 12 12 13 12 12 12 12 13 13 13 13 13 13 13 13 13 13 14 13 13 13 13 13 13 13 13 13 13 12 12 13 13 12 12 12 12 12 12 12 12
12 12 12 12 12 12 12 12 12 12 12 13 13 13 13 13 13 13 13 13 13 13 13 13 13 13 13 13 12 12 12 12 12 12 12 12 12 12 12 12 12 12 12
11 11 11 12 12 12 12 12 12 12 12 13 13 13 13 13 13 13 13 13 13 13 13 13 13 12 12 12 12 12 12 12 12 12 12 12 12 12 12 12 12 12 12
11 11 11 11 11 11 12 12 12 12 12 12 12 12 13 13 13 13 13 13 13 13 13 12 12 12 12 12 12 12 12 12 12 12 12 11 11 11 11 11 11 11 11
10 11 11 11 11 11 11 11 11 12 12 12 12 12 12 12 12 12 12 12 12 12 12 12 12 12 11 11 11 11 11 11 11 11 11 11 11 11 11 11 11 11 11
10 10 11 10 11 11 11 11 11 11 12 12 12 12 12 12 12 12 12 12 12 12 12 12 12 11 11 11 11 11 11 11 11 11 11 11 11 11 11 11 11 10 10
10 10 10 10 10 11 11 11 11 11 11 11 11 11 11 11 11 12 12 12 12 11 11 11 11 11 11 11 11 11 11 11 11 11 11 11 11 10 10 10 10 10 10
10 10 10 10 10 10 10 10 10 10 11 11 11 11 11 11 11 11 11 11 11 11 11 11 11 10 10 10 10 10 10 10 10 10 10 10 10 10 10 10 10 10 9
10 10 10 10 10 10 10 10 10 10 10 10 10 10 10 10 10 11 11 11 11 11 10 10 10 10 10 10 10 10 10 10 10 10 10 10 10 10 10 10 10 9 9
10 10 10 10 10 10 10 9 10 10 10 10 10 10 10 10 10 10 10 10 10 10 10 10 10 10 9 9 9 9 9 9 9 9 10 10 10 10 10 10 9 9 9
10 9 9 9 9 9 9 9 9 9 9 9 9 10 10 10 10 10 10 10 10 9 9 9 9 9 9 9 9 9 9 9 9 9 9 9 9 9 9 9 9 9 9
9 9 9 9 9 9 9 9 9 9 9 9 9 9 9 9 9 9 9 9 9 9 9 9 9 9 9 9 9 8 8 8 8 8 9 9 9 9 9 9 9 9 9
9 9 9 9 9 9 9 9 9 8 8 8 8 8 9 9 9 9 9 9 9 9 9 9 9 8 8 8 8 8 8 8 8 8 8 8 8 8 8 8 8 8 8
9 9 9 9 9 8 8 8 8 8 8 8 8 8 8 8 8 8 9 8 8 8 8 8 8 8 8 8 8 8 8 8 8 8 8 8 8 8 8 8 8 8 8
9 9 8 8 8 8 8 8 8 8 8 8 8 8 8 8 8 8 8 8 8 8 8 8 8 8 8 8 8 8 8 8 8 7 7 7 7 7 7 7 8 8 7
8 8 8 8 8 8 8 8 7 7 7 8 8 8 8 8 8 8 8 8 8 8 8 8 8 8 8 8 8 8 8 8 8 8 7 7 7 7 7 7 7 7 7
8 8 8 8 8 7 7 7 7 7 7 7 7 7 7 7 7 7 7 7 7 7 8 8 8 7 7 7 7 7 7 8 8 8 8 7 7 7 7 6 6 6 6
Wind_Speed
2 3 8 8 7 7 7 7 7 7 8 8 8 9 9 9 9 10 10 10 10 10 10 10 11 11 12 13 13 14 14 14 14 14 14 14 14 14 13 13 13 13 14
3 5 8 8 8 7 7 7 7 7 7 7 7 8 8 8 9 9 9 9 10 10 10 10 11 11 12 13 13 13 14 14 14 13 13 12 13 13 13 12 12 12 14
3 5 7 8 8 7 7 7 7 7 7 7 7 7 7 8 8 8 9 9 9 9 10 10 10 10 11 12 13 13 14 14 13 13 12 11 11 13 13 12 13 14 14
3 5 5 7 8 8 7 7 7 7 7 7 7 6 6 7 7 8 8 8 9 9 9 10 10 10 11 12 13 13 13 13 13 12 10 10 10 12 12 13 13 14 14
2 4 5 6 7 8 8 7 7 7 7 6 6 6 6 6 7 7 8 8 8 8 9 10 10 11 11 12 12 13 13 13 13 12 10 9 9 12 12 13 13 14 14
2 3 4 5 6 7 7 7 7 6 7 7 6 6 6 6 6 7 7 8 8 8 9 9 10 11 11 11 12 13 13 13 12 11 9 8 8 11 12 13 13 14 14
2 2 3 5 5 6 7 7 7 6 7 7 6 6 6 6 6 6 7 8 8 8 9 9 10 10 11 11 12 12 12 12 12 10 8 7 8 11 12 12 12 13 13
2 2 2 4 4 4 5 6 7 7 7 7 6 6 6 6 6 6 7 8 8 9 9 9 10 10 10 11 11 12 12 11 10 9 8 7 8 10 11 11 12 12 12
2 2 2 1 2 3 4 5 6 7 7 7 6 6 5 5 6 6 7 8 8 9 9 10 10 10 10 11 11 12 12 12 11 8 7 7 9 10 11 11 11 11 12
2 2 2 2 2 0 2 4 6 7 6 6 6 6 5 5 5 6 6 7 8 9 9 10 10 10 10 11 11 11 11 11 10 8 7 8 10 10 11 11 11 11 12
1 1 2 2 3 1 2 3 4 6 6 6 5 6 5 5 5 5 6 7 8 9 9 10 11 11 11 10 11 11 10 9 9 7 7 9 10 11 11 11 11 11 12
2 1 1 2 2 2 1 1 2 4 5 5 5 6 5 5 5 5 5 6 7 9 9 10 11 11 10 9 9 9 9 10 8 7 7 10 11 11 10 10 11 11 11
3 2 1 1 1 1 1 2 2 3 4 5 6 6 6 5 5 5 5 6 6 8 8 9 10 9 9 9 8 8 9 9 8 7 7 9 10 10 10 10 10 11 11
3 3 1 1 1 1 1 1 2 3 3 3 4 6 6 4 4 4 4 5 6 7 8 8 8 9 9 9 8 8 8 8 7 7 7 8 8 9 10 10 10 11 12
3 3 2 1 0 1 1 1 2 2 3 4 4 4 5 4 3 3 4 5 5 7 7 7 7 8 8 8 7 7 7 7 8 8 7 7 7 8 9 10 10 11 12
4 4 2 2 1 1 1 1 1 2 3 4 4 4 5 5 4 4 4 4 5 6 7 7 7 7 6 6 6 6 6 7 7 7 7 6 7 7 8 9 10 11 11
5 4 3 3 1 1 0 1 1 2 3 3 3 5 5 5 5 5 4 3 4 6 8 8 7 7 5 5 4 5 6 6 6 6 7 7 6 6 7 7 9 10 10
3 3 4 3 2 1 0 0 1 2 3 2 4 4 5 5 6 5 4 3 5 7 7 5 4 4 3 4 3 3 4 5 5 5 6 6 7 6 6 6 7 9 9
3 4 4 3 3 2 1 0 1 2 2 2 3 4 5 5 5 5 4 5 7 6 5 4 3 3 4 4 4 3 3 3 3 4 5 5 6 6 6 6 6 7 8
2 3 3 3 2 2 2 1 1 2 1 2 2 3 5 5 6 5 4 5 6 4 3 4 4 3 3 4 5 4 3 3 3 3 2 3 5 5 6 6 7 7 7
2 2 3 3 3 3 2 2 1 1 1 1 1 3 4 5 6 5 3 4 4 3 4 5 4 4 3 3 3 3 3 3 2 2 2 2 3 4 6 6 6 7 6
3 3 3 4 4 4 3 2 1 1 1 1 1 1 3 4 5 6 5 4 4 3 4 4 4 3 2 2 3 3 1 1 1 1 1 1 1 2 4 5 6 6 6
3 3 4 4 4 4 3 2 2 2 2 1 0 1 2 4 5 5 6 5 4 4 5 4 5 5 4 2 1 3 4 4 1 1 1 0 1 1 2 3 4 5 5
3 3 3 4 4 4 4 4 4 3 2 2 2 2 2 4 5 5 6 6 5 4 4 5 4 3 5 3 1 1 1 3 3 1 1 1 0 1 2 2 3 4 5
2 2 3 3 3 3 4 5 5 3 2 1 1 2 2 3 4 5 5 5 5 4 5 4 4 4 4 4 4 2 2 2 2 3 2 1 0 1 1 2 3 4 4
2 1 1 2 3 3 4 4 5 4 3 2 2 3 2 2 2 3 5 5 5 4 5 5 4 5 4 4 3 3 3 3 3 3 3 2 2 1 1 1 3 4 5
Wind_Direction
206 196 176 165 155 147 137 130 123 118 111 110 115 118 119 121 125 125 125 122 119 118 117 114 113 109 108 109 106 102 99 97 93 91 91 92 93 91 90 89 89 88 91
184 176 168 164 157 154 147 139 133 126 118 115 117 121 121 122 125 126 126 125 124 122 119 118 118 113 110 109 108 106 102 98 95 91 88 90 94 93 92 92 95 96 94
149 156 161 166 159 156 156 150 142 137 131 124 121 124 124 123 125 124 128 130 129 127 123 120 120 118 115 110 111 110 107 102 98 94 89 90 98 98 96 95 97 97 96
143 145 154 166 163 159 157 156 152 146 141 134 126 129 130 132 130 129 128 131 131 130 127 122 119 119 119 115 114 113 111 106 100 95 88 87 97 102 100 98 97 96 94
126 140 154 163 165 164 162 159 157 155 148 141 134 134 132 130 130 134 134 130 129 129 129 124 118 119 120 120 119 117 113 109 102 96 92 90 94 101 100 98 98 96 95
107 120 151 161 167 170 166 163 161 161 157 150 142 135 136 134 133 135 137 135 132 131 131 128 121 120 122 125 124 120 115 110 104 99 96 94 97 104 103 102 99 98 96
104 95 140 157 165 171 172 168 167 167 163 157 149 143 141 142 141 137 141 142 138 133 131 129 126 122 122 126 126 121 116 112 107 102 99 99 104 108 108 106 104 102 99
95 71 122 147 148 163 178 176 173 170 163 160 155 150 147 148 146 141 141 144 142 139 134 130 127 125 125 126 126 122 117 116 111 105 105 107 111 111 109 108 108 106 104
64 55 52 90 167 177 179 184 177 169 164 163 161 153 145 148 145 142 140 145 143 140 137 132 131 129 125 126 125 120 117 116 111 108 113 118 117 116 113 111 111 110 108
55 40 24 47 36 141 179 192 177 164 160 155 151 145 136 139 143 144 142 141 143 141 140 137 133 127 123 121 123 119 116 114 109 107 112 123 124 120 116 113 111 112 110
34 6 16 25 26 18 155 179 173 160 148 137 133 131 123 119 124 131 136 138 144 146 142 139 132 124 118 115 116 116 109 106 108 102 111 125 126 120 117 114 113 112 110
227 275 0 9 15 15 113 128 143 141 137 131 127 123 120 122 123 126 129 134 138 140 137 136 130 121 111 104 105 107 103 103 101 98 110 124 129 124 120 118 117 114 111
215 221 287 341 14 26 74 106 111 114 117 124 133 132 125 119 116 114 115 119 118 119 117 119 114 112 109 107 102 100 103 103 97 94 108 121 127 127 124 121 120 118 114
216 220 227 329 16 18 109 120 127 119 121 123 137 139 131 119 110 112 114 117 114 118 116 113 110 112 110 110 108 101 101 102 99 94 101 118 127 128 128 126 124 120 118
229 228 208 197 168 41 88 128 122 131 143 144 141 145 144 139 137 126 119 120 121 125 125 121 119 116 113 108 106 105 98 100 103 100 96 106 120 128 130 130 130 126 122
230 233 206 193 188 75 88 144 143 144 146 149 149 153 153 150 148 138 130 122 123 126 129 127 127 122 118 114 108 105 100 95 100 103 101 101 107 119 129 136 138 133 126
227 222 200 195 165 132 121 157 136 146 145 144 149 153 150 148 150 144 135 127 129 127 124 117 114 110 111 110 107 104 99 94 93 98 103 101 100 104 119 135 140 137 131
228 221 210 191 167 162 159 216 151 153 146 145 140 143 143 145 146 142 138 137 137 129 125 119 115 106 105 109 103 93 91 91 89 95 98 101 101 99 105 120 132 139 137
218 216 211 195 177 172 158 148 131 127 130 135 144 144 148 146 150 146 146 144 141 131 126 130 117 118 122 113 100 76 65 75 76 93 92 95 102 104 104 106 113 128 135
211 206 201 190 171 149 120 99 85 86 80 117 147 150 151 149 148 143 142 144 142 134 129 128 125 111 123 126 102 76 50 48 59 66 87 93 99 106 110 109 108 113 124
193 188 184 181 169 154 145 156 149 165 153 133 159 149 148 150 150 144 145 145 146 149 149 142 125 122 124 132 106 81 40 41 51 44 59 86 96 110 115 116 114 109 107
208 198 190 184 178 178 179 179 159 142 183 172 96 143 156 160 164 161 152 160 160 145 143 147 133 129 134 150 135 126 109 12 353 38 61 139 131 115 120 126 122 119 113
236 211 202 194 186 183 163 133 92 71 57 85 138 185 185 179 181 173 166 163 167 163 169 169 160 149 158 177 164 151 156 191 204 356 353 115 132 144 147 136 132 130 131
249 220 208 199 189 183 166 162 159 174 197 213 199 199 196 191 188 182 173 169 170 169 173 178 172 163 155 169 171 127 132 140 151 161 325 342 87 189 190 170 153 147 145
261 222 206 198 195 190 188 186 186 199 206 183 176 186 197 201 196 187 180 174 176 176 178 176 169 172 170 173 171 155 128 104 127 149 185 230 310 258 202 187 175 166 163
341 338 212 194 206 201 200 196 198 201 193 177 194 204 206 206 205 199 189 185 185 182 183 184 178 180 185 177 175 168 163 160 174 160 172 190 214 250 226 190 188 182 179
Height
1508 1510 1511 1513 1514 1516 1516 1517 1518 1519 1519 1520 1521 1522 1523 1524 1525 1526 1527 1528 1529 1530 1531 1532 1533 1534 1535 1536 1537 1538 1538 1539 1540 1541 1542 1542 1543 1544 1545 1545 1546 1547 1548
1508 1509 1511 1512 1513 1515 1516 1517 1518 1518 1519 1520 1521 1522 1523 1524 1525 1526 1527 1528 1529 1530 1531 1532 1533 1534 1536 1536 1537 1538 1539 1540 1541 1542 1543 1543 1544 1545 1546 1546 1547 1548 1549
1507 1509 1510 1511 1513 1514 1515 1516 1517 1518 1519 1519 1520 1521 1522 1523 1525 1526 1527 1528 1528 1530 1531 1532 1533 1534 1536 1537 1538 1539 1540 1541 1542 1543 1543 1544 1545 1546 1547 1547 1548 1549 1550
1507 1508 1509 1511 1512 1513 1514 1515 1516 1517 1518 1519 1520 1521 1522 1523 1524 1525 1526 1527 1528 1529 1531 1532 1533 1534 1536 1537 1538 1539 1540 1541 1542 1543 1544 1545 1546 1547 1548 1548 1549 1550 1551
1507 1508 1509 1510 1511 1512 1513 1514 1515 1516 1517 1518 1519 1520 1521 1523 1524 1525 1526 1527 1528 1529 1531 1532 1533 1534 1536 1537 1538 1539 1541 1542 1543 1544 1545 1546 1547 1548 1548 1549 1550 1551 1552
1507 1507 1508 1509 1510 1511 1512 1513 1514 1515 1516 1517 1518 1519 1521 1522 1523 1524 1525 1527 1528 1529 1530 1532 1533 1534 1535 1537 1538 1540 1541 1542 1543 1544 1546 1546 1547 1548 1549 1550 1551 1552 1552
1506 1507 1507 1508 1509 1510 1511 1512 1513 1514 1515 1516 1517 1518 1520 1521 1522 1524 1525 1526 1527 1529 1530 1531 1533 1534 1535 1537 1538 1539 1541 1542 1544 1545 1546 1547 1548 1549 1550 1550 1551 1552 1553
1506 1506 1506 1507 1508 1508 1510 1511 1512 1513 1514 1515 1516 1517 1519 1520 1521 1523 1524 1525 1527 1528 1529 1531 1532 1534 1535 1536 1538 1540 1541 1543 1544 1545 1546 1547 1548 1549 1550 1551 1552 1552 1553
1505 1505 1505 1506 1507 1507 1508 1509 1510 1511 1512 1513 1515 1516 1517 1519 1520 1522 1523 1525 1526 1527 1528 1530 1532 1533 1534 1536 1538 1540 1541 1543 1544 1545 1546 1547 1549 1549 1550 1551 1552 1553 1553
1504 1504 1504 1504 1504 1505 1506 1507 1509 1510 1511 1512 1513 1515 1516 1518 1519 1521 1522 1524 1525 1526 1528 1529 1531 1533 1534 1536 1537 1539 1541 1543 1544 1545 1547 1548 1549 1549 1550 1551 1552 1553 1554
1502 1502 1502 1502 1503 1503 1504 1505 1507 1508 1509 1510 1512 1513 1515 1516 1518 1520 1521 1523 1524 1525 1527 1529 1530 1532 1534 1535 1537 1539 1541 1543 1544 1545 1546 1548 1549 1549 1550 1551 1552 1553 1554
1500 1500 1500 1500 1501 1501 1502 1503 1504 1505 1507 1508 1510 1511 1513 1515 1516 1518 1520 1521 1523 1524 1526 1528 1529 1531 1533 1535 1537 1539 1540 1542 1544 1545 1546 1548 1548 1549 1550 1551 1552 1553 1554
1498 1499 1499 1499 1499 1499 1500 1501 1502 1503 1505 1506 1508 1510 1512 1513 1515 1516 1518 1520 1522 1523 1525 1527 1528 1530 1532 1534 1536 1538 1540 1542 1543 1545 1546 1547 1548 1549 1550 1551 1552 1553 1554
1497 1497 1496 1497 1497 1498 1498 1499 1500 1501 1503 1504 1506 1508 1510 1511 1513 1515 1517 1518 1520 1522 1524 1525 1527 1529 1531 1533 1535 1537 1539 1541 1542 1544 1545 1547 1548 1549 1550 1551 1552 1553 1553
1494 1494 1494 1495 1495 1496 1496 1497 1498 1500 1501 1502 1504 1506 1508 1510 1511 1513 1515 1517 1519 1521 1522 1524 1526 1528 1530 1532 1534 1536 1538 1540 1542 1543 1544 1546 1547 1549 1550 1550 1551 1552 1553
1492 1492 1492 1493 1493 1494 1495 1495 1497 1498 1499 1501 1502 1504 1506 1508 1510 1512 1513 1515 1517 1519 1521 1523 1525 1526 1528 1530 1532 1535 1537 1539 1540 1542 1543 1545 1546 1548 1549 1550 1551 1552 1553
1490 1490 1490 1491 1492 1492 1493 1494 1495 1496 1497 1499 1500 1502 1504 1506 1508 1510 1512 1514 1516 1518 1520 1521 1523 1525 1527 1529 1531 1533 1535 1537 1539 1540 1542 1544 1545 1546 1548 1549 1550 1551 1552
1487 1487 1488 1489 1490 1490 1491 1492 1493 1494 1496 1497 1499 1500 1502 1504 1507 1508 1510 1512 1514 1516 1518 1520 1521 1523 1525 1527 1529 1531 1533 1535 1537 1539 1540 1542 1544 1545 1546 1548 1549 1550 1551
1484 1485 1486 1487 1487 1488 1489 1491 1492 1493 1494 1495 1497 1498 1500 1502 1504 1506 1509 1511 1512 1514 1516 1518 1519 1522 1524 1526 1528 1530 1531 1533 1535 1537 1538 1540 1542 1543 1545 1546 1548 1549 1550
1482 1483 1484 1484 1485 1486 1487 1489 1490 1491 1492 1494 1495 1497 1498 1500 1502 1504 1506 1509 1510 1512 1514 1516 1518 1520 1522 1524 1526 1528 1530 1531 1533 1534 1536 1538 1539 1541 1543 1544 1546 1547 1548
1480 1481 1481 1482 1483 1484 1484 1486 1487 1488 1490 1491 1493 1494 1496 1498 1500 1502 1504 1506 1508 1510 1512 1514 1516 1517 1519 1522 1524 1525 1527 1529 1530 1532 1534 1535 1537 1539 1540 1542 1544 1545 1546
1478 1478 1479 1480 1481 1482 1482 1484 1486 1487 1488 1489 1491 1492 1494 1495 1497 1499 1501 1503 1506 1508 1510 1512 1514 1515 1517 1519 1521 1523 1525 1528 1528 1529 1531 1532 1534 1536 1537 1539 1541 1542 1544
1476 1476 1477 1478 1479 1480 1481 1482 1483 1485 1486 1486 1488 1489 1491 1493 1495 1496 1499 1501 1503 1505 1507 1509 1511 1513 1514 1517 1519 1520 1521 1522 1525 1527 1528 1530 1531 1533 1534 1536 1537 1539 1541
1474 1474 1475 1476 1477 1478 1479 1479 1480 1481 1482 1483 1485 1487 1489 1490 1492 1494 1496 1498 1500 1502 1505 1506 1508 1510 1512 1514 1516 1518 1519 1520 1522 1523 1526 1527 1528 1530 1531 1533 1534 1536 1538
1472 1472 1473 1473 1474 1475 1476 1477 1478 1479 1480 1482 1483 1485 1486 1487 1489 1491 1493 1495 1497 1499 1501 1503 1505 1507 1509 1511 1513 1515 1516 1518 1519 1520 1522 1524 1526 1527 1528 1529 1531 1532 1534
1470 1471 1470 1471 1471 1472 1473 1474 1475 1476 1477 1478 1480 1482 1483 1484 1486 1488 1490 1492 1494 1496 1498 1500 1502 1504 1506 1508 1509 1511 1513 1515 1516 1517 1518 1520 1522 1524 1525 1526 1528 1529 1531